Vertical_Velocity
-2 -1 3 0 -0 -1 2 -7 -0 -6 1 -3 -1 -3 -7 -4 -1 0 -1 -1 -2 -1 -2 -1 -0 -3 -2 -2 -4 -8 -6 -3 1 2 -3 -1 -3 -0 4 2 -3 -13 -5 -3
-3 -1 2 1 -1 0 -0 -1 3 3 -13 0 -10 4 5 -2 1 -3 -3 -2 -0 -3 -2 -2 -2 -1 -0 -1 -2 -2 -3 -6 -4 -1 0 -3 -2 -2 -8 -1 -0 -1 -0 -1
-4 0 -1 -3 -6 -3 -3 0 -4 2 -24 -1 -3 0 -1 -2 -0 -4 -3 -1 -1 -1 -3 -2 -2 -1 -2 0 2 3 3 1 1 0 0 0 -2 -1 -1 -1 -0 2 2 1
-2 -1 -2 -20 0 0 -0 -4 -0 1 -2 -0 0 0 4 1 -3 -1 -2 -3 -0 -2 -3 -4 -3 -3 0 -1 -2 -0 0 0 1 2 2 1 1 -1 -0 0 -0 -3 -3 -1
-1 0 -13 -7 0 -1 -0 -6 -1 -1 -2 -2 2 -2 -13 1 -2 -6 0 0 -2 1 -1 0 -1 -2 -2 -1 -3 -4 -2 -1 -3 -2 -1 -1 -0 -0 -0 -1 1 1 0 1
-1 -0 -1 -4 0 -1 -0 -7 -0 -1 -0 0 3 -0 -6 -1 -4 3 3 2 1 -3 -1 -3 -1 -1 -2 0 0 -0 -0 1 1 -1 1 2 2 1 2 2 0 1 -1 2
-1 -0 -10 -3 -1 -1 1 -20 -1 -0 -0 0 -1 -11 -5 -1 -2 -3 -3 -2 -1 -1 -5 -0 -0 0 0 -2 -2 0 -0 0 0 2 1 0 -1 -1 -1 -2 -1 -1 -3 -2
2 3 -11 -2 2 -6 -12 0 -2 -2 -2 -3 -3 -1 -0 -1 0 1 -1 1 -1 -3 -5 0 2 1 -1 -5 -1 -3 -3 -3 -3 -3 -2 -2 -2 -1 -1 -0 -2 -3 -3 -3
-10 -16 -4 -6 -5 -4 1 -3 -2 1 -2 1 2 -4 -2 -4 -4 -5 -0 1 2 -1 1 1 1 -3 -4 2 -1 1 -0 -0 -1 -3 -4 -2 -2 -0 -0 -0 -1 0 -1 -0
-2 -11 -7 0 -4 -1 3 -3 0 0 -2 2 -1 -0 -0 -2 -2 -1 -2 -4 2 1 0 -1 -2 -0 1 -2 -7 -3 -2 -2 -2 -2 -1 -1 -2 -3 -2 -3 -3 -3 -2 -3
-6 -7 -4 -13 -3 0 2 2 2 -3 1 -2 -0 -6 1 -2 -0 1 1 -0 1 -1 -1 -4 -1 -1 1 5 -0 -1 0 -2 -4 -2 -0 1 2 1 1 0 -0 -1 -2 -2
-13 -7 -2 -5 -1 -3 -3 1 5 1 -3 -2 4 -1 2 -3 -1 -2 -1 4 2 1 0 -1 5 -1 -1 2 -2 2 -1 -1 -0 0 0 1 -2 -4 -5 -4 -1 1 1 1
-28 5 1 5 1 -2 -5 -3 -0 -0 -0 -4 1 0 5 -0 4 2 -0 -1 0 1 3 3 4 4 -1 2 2 -1 -1 1 1 1 1 1 -1 -1 -1 -0 -5 -4 -3 -2
-3 16 2 3 -9 -2 -1 -1 -1 -1 -0 -1 -3 -1 0 1 2 -0 0 3 3 2 -0 -1 2 -2 2 5 5 3 2 4 1 1 -1 -2 -1 2 3 -1 -2 -2 -2 1
-5 8 -5 4 1 1 -2 -2 -2 -1 1 -2 -0 -0 -0 -1 0 -0 0 0 0 1 0 1 -1 -6 6 1 -0 3 5 2 2 1 2 3 2 1 -0 -1 -0 0 -2 -2
-1 4 5 -2 0 2 0 -2 -3 -2 -0 1 -0 0 -0 -1 -2 -2 -1 1 -2 -3 0 2 1 -0 5 0 2 2 1 2 3 2 2 0 0 0 1 0 -1 -4 -3 -2
9 -2 -2 -1 1 4 -6 0 -2 -0 -1 -3 -3 -4 -3 -2 -1 0 1 -1 -1 -2 1 1 -1 9 5 -0 2 4 4 6 4 7 -0 1 1 -1 -2 -4 -2 1 1 -1
2 5 -3 1 0 2 -1 1 -1 -1 -1 -0 -1 1 0 1 -0 -3 1 -0 -1 -2 0 2 -3 -1 -0 6 5 2 3 5 3 2 4 0 0 1 -0 -1 -1 -1 0 0
-2 0 -0 -3 -0 1 2 -2 0 0 -0 -1 -1 -1 -1 -1 -2 -3 -1 -3 -2 -5 2 0 1 -0 -7 1 2 1 1 0 2 2 1 1 -2 -1 -1 -1 -1 -0 -1 -1
-1 5 5 1 0 -0 1 -0 -1 1 0 1 1 0 -2 -1 -0 2 -2 -3 1 0 -0 -2 1 -2 -3 5 1 1 1 0 1 2 1 -1 -1 -1 -0 -1 -1 -1 -1 -2
0 0 2 -0 -0 2 1 -3 1 2 -1 -2 -2 2 2 2 -6 0 -4 -2 2 -0 -2 1 1 -2 -0 1 2 3 1 1 0 0 -0 -1 1 -1 -1 -0 -1 0 -0 -0
1 2 3 1 -2 1 2 0 1 -1 -0 -3 -3 -2 -3 -1 -3 -1 -1 -2 -2 -0 2 -4 -3 -0 -2 1 2 3 4 3 2 -1 -3 -2 1 2 0 -0 -1 0 -0 1
-4 -1 -1 2 1 1 1 1 -0 -1 -4 -4 -2 -1 -3 -2 2 -1 -3 -3 -0 0 1 0 -3 -3 -5 1 5 3 1 -1 0 1 3 1 -1 1 1 0 1 -1 -1 0
-2 -4 3 8 3 -0 -2 -2 -3 -3 -3 3 2 -1 -2 -8 -0 0 3 3 -3 -0 3 3 -6 -3 -1 2 2 1 1 1 1 1 1 0 1 1 0 0 -1 -1 -0 1
5 0 0 3 1 -2 0 3 -3 -1 -3 -0 8 3 -5 -6 1 -1 0 -3 -0 4 3 -2 -4 -1 -1 2 3 2 -1 0 -1 -1 0 2 2 0 1 -1 -1 1 2 2
-6 4 5 3 -2 1 3 2 -3 1 -2 -1 2 0 -1 -1 -4 -3 -3 1 -1 3 -2 -2 -2 3 -2 -2 1 1 -0 0 -2 -3 -3 0 0 1 1 1 1 2 2 1
-9 -5 1 3 3 -2 -1 -0 1 -5 1 1 2 1 0 -1 -3 -1 -3 2 -1 2 -2 -4 3 1 -1 0 2 1 0 1 -1 -1 -1 0 1 1 -0 -0 -0 -0 1 0
Height
1509 1502 1500 1499 1498 1496 1498 1495 1500 1475 1471 1463 1462 1462 1461 1463 1464 1465 1465 1465 1465 1464 1464 1462 1460 1457 1455 1453 1451 1450 1448 1444 1442 1441 1439 1438 1437 1437 1437 1436 1437 1441 1444 1444
1505 1493 1492 1494 1486 1484 1482 1481 1481 1478 1472 1462 1457 1454 1456 1458 1460 1461 1461 1462 1462 1462 1461 1460 1459 1457 1455 1453 1451 1450 1449 1448 1446 1445 1444 1443 1442 1443 1443 1443 1443 1444 1445 1445
1511 1495 1495 1492 1468 1470 1469 1468 1468 1474 1455 1456 1452 1451 1452 1454 1456 1457 1457 1458 1458 1458 1458 1458 1457 1456 1455 1454 1453 1451 1450 1449 1447 1446 1445 1444 1444 1443 1443 1443 1444 1444 1444 1445
1513 1502 1508 1468 1459 1459 1462 1459 1460 1457 1455 1454 1452 1452 1450 1451 1452 1452 1453 1453 1453 1453 1454 1454 1455 1455 1454 1453 1452 1451 1450 1449 1448 1447 1446 1445 1444 1444 1444 1444 1444 1444 1444 1444
1516 1507 1484 1460 1459 1458 1459 1455 1450 1451 1450 1449 1450 1449 1449 1449 1447 1446 1448 1448 1449 1449 1449 1449 1450 1451 1451 1450 1450 1449 1449 1448 1447 1446 1446 1446 1445 1445 1445 1445 1444 1444 1444 1444
1508 1510 1495 1456 1457 1457 1457 1465 1445 1445 1445 1443 1445 1452 1448 1444 1442 1444 1445 1445 1445 1445 1445 1446 1447 1447 1448 1448 1447 1447 1447 1446 1446 1446 1445 1445 1445 1444 1444 1444 1444 1443 1443 1443
1510 1508 1478 1451 1454 1457 1464 1454 1443 1443 1442 1441 1441 1439 1439 1439 1439 1439 1440 1440 1441 1440 1440 1441 1442 1443 1443 1444 1444 1444 1444 1444 1444 1444 1444 1444 1444 1444 1444 1444 1443 1443 1443 1442
1499 1497 1484 1444 1452 1456 1442 1439 1439 1440 1441 1441 1440 1438 1437 1437 1435 1435 1434 1434 1433 1433 1434 1435 1437 1437 1437 1438 1440 1440 1441 1441 1441 1442 1442 1442 1442 1442 1442 1441 1441 1440 1440 1439
1470 1457 1436 1435 1432 1432 1432 1433 1434 1435 1435 1435 1434 1433 1433 1431 1431 1429 1427 1427 1427 1427 1427 1429 1430 1431 1433 1435 1436 1437 1437 1437 1438 1438 1438 1438 1438 1439 1439 1439 1438 1438 1437 1437
1458 1432 1431 1431 1430 1427 1429 1428 1429 1429 1428 1429 1428 1426 1425 1425 1424 1423 1422 1421 1422 1422 1421 1422 1423 1424 1426 1429 1429 1430 1430 1430 1431 1431 1432 1433 1434 1434 1434 1434 1435 1435 1434 1434
1449 1431 1432 1424 1423 1423 1423 1423 1423 1424 1423 1422 1422 1420 1419 1418 1417 1417 1416 1415 1415 1415 1414 1415 1417 1418 1420 1421 1422 1424 1425 1426 1426 1427 1427 1427 1428 1429 1429 1430 1430 1430 1429 1428
1429 1423 1423 1419 1418 1418 1419 1420 1421 1421 1420 1419 1417 1414 1413 1411 1409 1409 1409 1410 1409 1409 1409 1409 1411 1411 1412 1415 1415 1417 1418 1420 1421 1423 1424 1425 1426 1426 1426 1426 1426 1426 1425 1425
1416 1417 1418 1417 1415 1415 1416 1418 1418 1417 1415 1413 1411 1409 1407 1405 1404 1403 1402 1402 1402 1402 1402 1403 1404 1404 1405 1406 1408 1409 1410 1412 1414 1416 1417 1418 1419 1420 1421 1421 1421 1421 1421 1420
1412 1413 1411 1410 1411 1412 1412 1413 1412 1412 1410 1408 1406 1405 1403 1400 1397 1395 1394 1394 1393 1393 1393 1394 1395 1396 1399 1399 1399 1400 1403 1406 1408 1410 1411 1412 1413 1414 1416 1416 1416 1416 1416 1415
1402 1403 1400 1403 1405 1405 1406 1407 1407 1406 1405 1403 1402 1400 1399 1397 1394 1390 1388 1387 1386 1385 1385 1385 1386 1387 1390 1390 1393 1395 1397 1399 1401 1403 1405 1407 1408 1409 1410 1410 1411 1411 1411 1410
1393 1392 1394 1394 1394 1397 1398 1400 1400 1400 1400 1399 1398 1397 1395 1392 1390 1387 1384 1382 1380 1378 1378 1378 1378 1379 1381 1382 1383 1385 1388 1392 1394 1396 1398 1400 1401 1402 1403 1404 1404 1405 1404 1404
1385 1385 1389 1386 1386 1387 1388 1392 1393 1394 1395 1394 1393 1392 1390 1388 1385 1383 1381 1379 1376 1375 1373 1372 1371 1372 1372 1373 1376 1378 1380 1383 1386 1389 1391 1393 1395 1396 1397 1397 1398 1398 1398 1398
1376 1376 1380 1382 1382 1382 1383 1386 1387 1389 1389 1388 1388 1387 1385 1383 1380 1378 1376 1374 1371 1369 1368 1366 1366 1365 1367 1367 1367 1371 1374 1378 1381 1383 1386 1387 1389 1390 1391 1392 1392 1392 1392 1392
1366 1367 1369 1374 1377 1379 1380 1381 1383 1383 1383 1383 1382 1382 1381 1379 1377 1374 1372 1370 1367 1364 1362 1360 1358 1357 1359 1361 1362 1363 1366 1371 1375 1378 1380 1382 1383 1385 1385 1386 1386 1386 1386 1386
1359 1360 1363 1368 1372 1376 1378 1379 1380 1380 1380 1379 1378 1376 1376 1375 1373 1370 1367 1366 1364 1359 1356 1355 1354 1352 1354 1355 1356 1358 1360 1363 1368 1372 1374 1376 1377 1378 1379 1380 1380 1380 1380 1379
1354 1355 1357 1361 1367 1371 1374 1376 1376 1376 1377 1378 1376 1374 1372 1368 1369 1367 1364 1362 1360 1356 1353 1351 1349 1348 1349 1351 1352 1353 1356 1359 1363 1366 1369 1371 1372 1373 1373 1373 1374 1374 1374 1373
1354 1356 1358 1360 1364 1368 1370 1372 1372 1371 1371 1371 1372 1370 1369 1366 1365 1363 1362 1359 1357 1353 1350 1347 1347 1347 1350 1350 1351 1353 1355 1358 1361 1363 1364 1366 1366 1367 1368 1368 1368 1368 1368 1368
1355 1356 1358 1360 1363 1366 1368 1369 1369 1368 1367 1367 1366 1364 1365 1363 1363 1357 1356 1355 1353 1351 1347 1344 1344 1349 1349 1353 1352 1352 1354 1356 1358 1360 1361 1362 1363 1363 1363 1363 1362 1362 1362 1362
1356 1358 1359 1360 1361 1363 1365 1367 1366 1365 1364 1361 1358 1357 1357 1357 1359 1356 1353 1350 1350 1349 1346 1343 1343 1348 1349 1352 1353 1353 1354 1355 1356 1357 1358 1358 1358 1357 1357 1356 1356 1356 1356 1356
1357 1358 1359 1359 1359 1358 1360 1362 1362 1360 1358 1357 1354 1351 1350 1353 1353 1351 1350 1348 1348 1346 1343 1342 1344 1346 1349 1352 1352 1352 1352 1353 1354 1355 1355 1354 1353 1352 1352 1351 1352 1351 1350 1349
1357 1356 1354 1354 1354 1354 1355 1355 1356 1354 1352 1350 1349 1346 1345 1346 1347 1346 1346 1344 1344 1342 1341 1342 1344 1344 1346 1349 1350 1349 1350 1350 1350 1351 1351 1350 1349 1348 1348 1347 1346 1346 1345 1343
1344 1347 1347 1347 1346 1346 1346 1347 1348 1347 1346 1344 1343 1341 1340 1340 1340 1340 1341 1340 1339 1338 1337 1340 1341 1341 1343 1344 1346 1346 1347 1346 1346 1345 1345 1345 1344 1343 1342 1342 1341 1341 1339 1337